This demonstration page uses our WeatherBlox Daily Observations layout. Learn more.

Left ArrowRight Arrow

34.74481, -87.66753

Hourly Observations for October 30, 2021

Temp ( °F °C ) Dew Point ( °F °C ) Humidity (%) Winds ( mph kmh ) Pressure ( in mb ) Visibility ( mi km ) Precip ( " mm )
12:23 am 00:23 Mostly Cloudy 57 13.9 53 11.7 87 87 WNW 7 11 29.63 1003 10 16 N/A
12:46 am 00:46 Cloudy 57 13.9 53 11.7 87 87 WNW 8 13 29.64 1004 10 16 N/A
12:53 am 00:53 Cloudy 57 13.9 53 11.7 87 87 WNW 8 13 29.63 1003 10 16 N/A
1:21 am 01:21 Cloudy 57 13.9 53 11.7 87 87 W 9 15 29.63 1003 10 16 N/A
1:29 am 01:29 Cloudy 57 13.9 53 11.7 87 87 W 9 15 29.63 1003 10 16 N/A
1:51 am 01:51 Cloudy 57 14 54 12 88 88 WNW 8 13 29.63 1003 10 16 N/A
1:53 am 01:53 Cloudy 57 13.9 53 11.7 87 87 WNW 9 15 29.62 1003 10 16 N/A
2:05 am 02:05 Cloudy 57 13.9 53 11.7 87 87 WNW 9 15 29.64 1004 10 16 N/A
2:53 am 02:53 Cloudy 57 13.9 52 11.1 83 83 WNW 12 19 29.63 1004 10 16 N/A
3:12 am 03:12 Cloudy 57 13.9 51 10.6 81 81 WNW 9 15 29.64 1004 10 16 N/A
3:45 am 03:45 Cloudy 56 13.3 52 11.1 87 87 WNW 8 13 29.64 1004 10 16 N/A
3:53 am 03:53 Cloudy 56 13.3 52 11.1 87 87 WNW 8 13 29.64 1004 10 16 N/A
4:04 am 04:04 Cloudy 56 13.3 52 11.1 87 87 WNW 8 13 29.64 1004 10 16 N/A
4:13 am 04:13 Cloudy 56 13.3 51 10.6 84 84 WNW 12 19 29.65 1004 8 13 N/A
4:23 am 04:23 Cloudy with Light Rain 56 13.3 51 10.6 84 84 NW 10 17 29.65 1004 4 6 0.01 0.25
4:37 am 04:37 Cloudy 55 12.8 51 10.6 87 87 NW 10 17 29.65 1004 9 14 0.01 0.25
4:53 am 04:53 Cloudy 56 13.3 51 10.6 84 84 WNW 8 13 29.65 1004 10 16 0.01 0.25
5:04 am 05:04 Cloudy 56 13.3 51 10.6 84 84 WNW 7 11 29.66 1004 10 16 N/A
5:36 am 05:36 Cloudy 55 12.8 51 10.6 87 87 WNW 8 13 29.67 1005 10 16 N/A
5:53 am 05:53 Cloudy 55 12.8 51 10.6 87 87 WNW 8 13 29.66 1004 10 16 N/A
6:11 am 06:11 Cloudy 55 12.8 51 10.6 87 87 W 9 15 29.67 1005 10 16 N/A
6:33 am 06:33 Cloudy with Mist and Fog 55 12.8 51 10.6 87 87 W 10 17 29.67 1005 6 10 N/A
6:53 am 06:53 Cloudy 55 12.8 51 10.6 87 87 W 13 20 29.67 1005 8 13 N/A
7:00 am 07:00 Cloudy with Haze 55 12.8 50 10 83 83 W 9 15 29.67 1005 6 10 N/A
7:14 am 07:14 Cloudy 55 12.8 50 10 83 83 W 9 15 29.68 1005 10 16 N/A
7:25 am 07:25 Cloudy 55 12.8 50 10 83 83 W 14 22 29.68 1005 8 13 N/A
7:41 am 07:41 Cloudy with Haze 55 12.8 50 10 83 83 W 12 19 29.69 1005 3 4 N/A
7:53 am 07:53 Cloudy with Mist and Fog 54 12.2 50 10 87 87 W 13 20 29.69 1005 2 3 0.01 0.25
8:05 am 08:05 Cloudy with Light Rain 54 12.2 50 10 87 87 W 14 22 29.70 1006 2 2 0.00 0.00
8:35 am 08:35 Cloudy with Haze 55 12.8 50 10 83 83 W 12 19 29.70 1006 3 5 0.01 0.25
8:53 am 08:53 Cloudy 55 12.8 50 10 83 83 W 13 20 29.70 1006 10 16 0.01 0.25
9:02 am 09:02 Cloudy 55 12.8 50 10 83 83 W 10 17 29.71 1006 10 16 N/A
9:07 am 09:07 Cloudy 55 12.8 50 10 83 83 W 13 20 29.71 1006 7 11 N/A
9:53 am 09:53 Cloudy with Haze 55 12.8 50 10 83 83 W 15 24 29.72 1006 4 6 N/A
10:30 am 10:30 Cloudy with Mist and Fog 55 12.8 51 10.6 87 87 WNW 12 19 29.73 1007 5 8 0.01 0.25
10:53 am 10:53 Cloudy 55 12.8 51 10.6 87 87 WNW 13 20 29.72 1007 9 14 0.01 0.25
11:16 am 11:16 Cloudy 56 13.3 51 10.6 84 84 W 13 20 29.73 1007 10 16 N/A
11:53 am 11:53 Cloudy 57 13.9 51 10.6 81 81 W 10 17 29.72 1007 10 16 N/A
12:04 pm 12:04 Cloudy 57 13.9 51 10.6 81 81 WNW 12 19 29.73 1007 10 16 N/A
12:53 pm 12:53 Cloudy 56 13.3 51 10.6 84 84 WNW 10 17 29.72 1006 8 13 N/A
1:53 pm 13:53 Cloudy 57 13.9 51 10.6 81 81 W 13 20 29.71 1006 10 16 N/A
2:53 pm 14:53 Cloudy 57 13.9 51 10.6 81 81 WNW 12 19 29.72 1007 9 14 N/A
3:43 pm 15:43 Cloudy 57 13.9 51 10.6 81 81 WNW 12 19 29.74 1007 10 16 N/A
3:50 pm 15:50 Cloudy 57 14 52 11 82 82 WNW 16 26 29.75 1007 10 16 N/A
3:53 pm 15:53 Cloudy 58 14.4 51 10.6 78 78 WNW 12 19 29.74 1007 10 16 N/A
4:26 pm 16:26 Cloudy 57 13.9 51 10.6 81 81 W 12 19 29.76 1008 9 14 N/A
4:41 pm 16:41 Cloudy 57 13.9 51 10.6 81 81 WNW 10 17 29.76 1008 10 16 N/A
4:53 pm 16:53 Cloudy 57 13.9 51 10.6 81 81 WNW 10 17 29.76 1008 10 16 N/A
5:16 pm 17:16 Cloudy 57 13.9 50 10 78 78 NW 12 19 29.77 1008 10 16 N/A
5:53 pm 17:53 Cloudy 57 13.9 50 10 78 78 WNW 9 15 29.79 1009 10 16 N/A
6:12 pm 18:12 Cloudy 57 13.9 50 10 78 78 WNW 15 24 29.80 1009 10 16 N/A
6:22 pm 18:22 Cloudy 57 13.9 50 10 78 78 NW 9 15 29.80 1009 10 16 N/A
6:53 pm 18:53 Cloudy 57 13.9 50 10 78 78 WNW 9 15 29.80 1009 10 16 N/A
7:53 pm 19:53 Cloudy 57 13.9 51 10.6 81 81 WNW 7 11 29.83 1010 10 16 N/A
8:25 pm 20:25 Cloudy 57 13.9 51 10.6 81 81 WNW 8 13 29.84 1010 10 16 N/A
8:53 pm 20:53 Cloudy 57 13.9 51 10.6 81 81 W 6 9 29.84 1011 10 16 N/A
9:53 pm 21:53 Cloudy 57 13.9 51 10.6 81 81 W 7 11 29.86 1011 10 16 N/A
10:53 pm 22:53 Cloudy 57 13.9 51 10.6 81 81 W 7 11 29.87 1011 10 16 N/A
11:53 pm 23:53 Cloudy 57 13.9 51 10.6 81 81 WNW 7 11 29.88 1012 10 16 N/A

Powered by AerisWeather